GW5095 Weather Reports


time (UTC)temp
C
wind
direction
speed
KPH
gust
KPH
rain 1hr
cm
rain 24hr
cm
rain mn
cm
humidity
%
barometer
mb
20260503072915 21 49 4.8 9.7 0.00 0.15 0.15 99 1017.5
20260503072413 21 318 4.8 4.8 0.00 0.15 0.15 99 1017.5
20260503071909 21 30 4.8 4.8 0.00 0.15 0.15 99 1017.5
20260503071407 21 19 6.4 9.7 0.00 0.15 0.15 99 1017.5
20260503070902 21 256 1.6 1.6 0.00 0.15 0.15 99 1018.2
20260503070400 21 315 3.2 4.8 0.00 0.15 0.15 99 1018.2
20260503060325 22 194 1.6 1.6 0.00 0.00 0.00 96 1018.2
20260503054814 22 193 1.6 1.6 0.00 0.00 0.00 97 1017.8
20260503054309 22 224 3.2 3.2 0.00 0.00 0.00 97 1017.8
20260503053807 22 197 0.0 1.6 0.00 0.00 0.00 97 1018.2
20260503053306 22 194 0.0 1.6 0.00 0.00 0.00 97 1018.2
20260503052801 22 169 1.6 3.2 0.00 0.00 0.00 98 1018.5
20260503052259 22 168 1.6 1.6 0.00 0.00 0.00 98 1018.5
20260503051754 22 177 4.8 4.8 0.00 0.00 0.00 97 1018.2
20260503051251 22 189 0.0 0.0 0.00 0.00 0.00 97 1018.5
20260503050748 22 166 3.2 3.2 0.00 0.00 0.00 98 1018.2
20260503050244 22 177 0.0 0.0 0.00 0.00 0.00 98 1018.5
20260503045742 22 171 0.0 0.0 0.00 0.00 0.00 98 1018.5
20260503045240 22 165 3.2 3.2 0.00 0.00 0.00 98 1018.5
20260503044736 22 175 0.0 0.0 0.00 0.00 0.00 98 1018.5
20260503044233 22 172 0.0 0.0 0.00 0.00 0.00 98 1018.5
20260503043730 22 136 1.6 1.6 0.00 0.00 0.00 98 1018.5
20260503043227 22 144 1.6 1.6 0.00 0.00 0.00 98 1018.2
20260503042723 22 179 0.0 0.0 0.00 0.00 0.00 98 1018.5
20260503042220 22 151 3.2 4.8 0.00 0.00 0.00 98 1018.5
20260503041716 22 174 1.6 1.6 0.00 0.00 0.00 99 1018.5
20260503041214 22 165 3.2 3.2 0.00 0.00 0.00 99 1018.8
20260503040711 22 166 1.6 3.2 0.00 0.00 0.00 99 1018.5
20260503040209 22 172 1.6 1.6 0.00 0.00 0.00 99 1018.5
20260503035705 22 181 0.0 0.0 0.00 1.27 1.27 99 1018.2
20260503035202 22 179 0.0 0.0 0.00 1.27 1.27 99 1018.2
20260503034700 21 174 0.0 0.0 0.00 1.27 1.27 99 1018.2
20260503034156 21 187 0.0 1.6 0.00 1.27 1.27 98 1017.8
20260503033654 21 174 0.0 0.0 0.00 1.27 1.27 98 1017.5
20260503033152 21 182 0.0 0.0 0.00 1.27 1.27 98 1017.8
20260503032649 21 186 1.6 1.6 0.00 1.27 1.27 98 1017.8
20260503032148 21 182 0.0 0.0 0.00 1.27 1.27 98 1017.8
20260503031645 21 175 0.0 1.6 0.00 1.27 1.27 98 1017.5
20260503031143 22 160 3.2 3.2 0.00 1.27 1.27 98 1017.5
20260503030638 22 175 3.2 3.2 0.00 1.27 1.27 98 1017.5
20260503030135 21 171 3.2 3.2 0.00 1.27 1.27 98 1017.1
20260503025632 22 172 1.6 3.2 0.00 1.27 1.27 99 1016.8
20260503025130 21 165 0.0 0.0 0.00 1.27 1.27 99 1016.8
20260503024626 22 161 0.0 0.0 0.00 1.27 1.27 99 1017.1
20260503024123 21 153 1.6 1.6 0.00 1.27 1.27 99 1017.1
20260503023620 21 153 0.0 0.0 0.00 1.27 1.27 99 1017.5
20260503023118 21 181 1.6 1.6 0.00 1.27 1.27 99 1017.8
20260503022613 21 195 1.6 1.6 0.00 1.27 1.27 99 1017.5
20260503022108 21 165 0.0 0.0 0.00 1.27 1.27 99 1017.1
20260503021606 21 168 0.0 0.0 0.00 1.27 1.27 99 1017.1
20260503021102 21 166 3.2 3.2 0.00 1.27 1.27 99 1016.8
20260503020559 21 155 4.8 4.8 0.00 1.27 1.27 99 1017.1
20260503020056 21 173 0.0 0.0 0.00 1.27 1.27 99 1017.1
20260503015553 21 160 3.2 3.2 0.00 1.27 1.27 99 1017.1
20260503015050 22 157 3.2 4.8 0.00 1.27 1.27 99 1017.5
20260503014546 22 167 6.4 8.0 0.00 1.27 1.27 99 1017.5
20260503014044 22 180 4.8 4.8 0.00 1.27 1.27 99 1017.5
20260503013541 22 178 1.6 1.6 0.00 1.27 1.27 99 1017.5
20260503013039 22 182 4.8 8.0 0.00 1.27 1.27 99 1017.5
20260503012536 22 196 3.2 3.2 0.00 1.27 1.27 99 1017.1
20260503012032 22 177 6.4 8.0 0.00 1.27 1.27 99 1016.8
20260503011529 22 181 4.8 8.0 0.00 1.27 1.27 99 1016.5
20260503011026 22 128 3.2 3.2 0.00 1.27 1.27 99 1015.8
20260503010522 22 96 1.6 3.2 0.00 1.27 1.27 99 1015.8
20260503010020 22 154 0.0 0.0 0.03 1.27 1.27 99 1015.8
20260503005517 22 164 0.0 0.0 0.03 1.27 1.27 99 1015.8
20260503005014 22 161 1.6 3.2 0.03 1.27 1.27 99 1015.8
20260503004510 22 127 1.6 1.6 0.03 1.27 1.27 99 1016.5
20260503004008 22 190 1.6 1.6 0.03 1.27 1.27 99 1016.5
20260503003505 22 288 3.2 3.2 0.03 1.27 1.27 99 1016.5
20260503003002 22 187 1.6 1.6 0.03 1.27 1.27 99 1015.8
20260503002459 22 171 4.8 4.8 0.03 1.27 1.27 99 1015.8
20260503001955 22 174 4.8 4.8 0.03 1.27 1.27 99 1015.4
20260503001452 22 207 0.0 0.0 0.00 1.24 1.24 99 1015.4
20260503000949 22 167 0.0 0.0 0.00 1.24 1.24 99 1015.4
20260503000446 22 152 3.2 4.8 0.00 1.24 1.24 99 1015.8
20260502235944 22 150 6.4 9.7 0.05 1.24 1.24 99 1016.5
20260502235440 22 179 8.0 11.3 0.05 1.24 1.24 99 1016.1
20260502234938 22 188 6.4 9.7 0.05 1.24 1.24 99 1015.4
20260502234434 22 172 14.5 17.7 0.05 1.24 1.24 99 1014.4
20260502233932 22 139 11.3 12.9 0.05 1.24 1.24 99 1014.8
20260502233426 22 164 6.4 9.7 0.05 1.24 1.24 99 1015.1
20260502232924 22 210 1.6 1.6 0.05 1.24 1.24 99 1015.4
20260502232420 22 182 6.4 8.0 0.05 1.24 1.24 99 1015.8
20260502231917 22 132 1.6 3.2 0.05 1.24 1.24 99 1015.4
20260502231414 22 192 3.2 3.2 0.03 1.22 1.22 99 1015.8
20260502230913 22 179 1.6 3.2 0.03 1.22 1.22 99 1016.1
20260502230411 22 177 4.8 4.8 0.03 1.22 1.22 99 1015.8
20260502225908 22 169 0.0 0.0 0.15 1.19 1.19 99 1015.8
20260502225404 22 179 0.0 0.0 0.15 1.19 1.19 99 1015.1
20260502224901 22 144 0.0 0.0 0.15 1.19 1.19 99 1015.1
20260502224357 22 182 0.0 0.0 0.15 1.19 1.19 99 1015.4
20260502223854 22 164 4.8 8.0 0.15 1.19 1.19 99 1015.8
20260502223352 22 172 3.2 4.8 0.15 1.19 1.19 99 1015.8
20260502222850 22 183 3.2 4.8 0.15 1.19 1.19 99 1015.4
20260502222348 22 165 0.0 0.0 0.13 1.17 1.17 99 1015.1
20260502221843 22 170 3.2 3.2 0.10 1.14 1.14 98 1015.4
20260502221339 22 175 6.4 9.7 0.08 1.12 1.12 99 1015.8
20260502220837 22 111 1.6 1.6 0.05 1.09 1.09 98 1015.4
20260502220332 22 169 1.6 3.2 0.03 1.07 1.07 98 1015.8
20260502215829 22 183 1.6 3.2 0.30 1.04 1.04 98 1015.8
20260502215327 22 94 1.6 1.6 0.28 1.02 1.02 98 1015.1
20260502214823 22 164 3.2 3.2 0.28 1.02 1.02 98 1015.4
20260502214320 22 174 0.0 0.0 0.25 0.99 0.99 98 1015.4
20260502213817 22 182 0.0 0.0 0.23 0.97 0.97 98 1015.4
20260502213314 22 80 0.0 1.6 0.23 0.97 0.97 98 1015.1
20260502212813 22 163 0.0 0.0 0.23 0.97 0.97 98 1015.8
20260502212311 22 170 0.0 0.0 0.23 0.97 0.97 98 1015.4
20260502211808 22 134 1.6 1.6 0.23 0.97 0.97 98 1015.1
20260502211303 22 79 1.6 1.6 0.20 0.94 0.94 97 1014.8
20260502210801 22 300 8.0 11.3 0.05 0.79 0.79 97 1014.8
20260502210258 22 298 6.4 9.7 0.00 0.74 0.74 97 1015.8
20260502205755 22 289 4.8 8.0 0.74 0.74 0.74 96 1015.4
20260502205251 22 25 3.2 4.8 0.56 0.56 0.56 96 1015.4
20260502204749 22 291 0.0 1.6 0.46 0.46 0.46 95 1015.4
20260502204246 22 284 6.4 9.7 0.43 0.43 0.43 95 1015.1
20260502203743 23 324 8.0 11.3 0.43 0.43 0.43 93 1015.1
20260502203236 24 5 4.8 11.3 0.38 0.38 0.38 89 1014.4
20260502202735 26 304 8.0 11.3 0.00 0.00 0.00 80 1014.8
20260502202234 27 194 3.2 4.8 0.00 0.00 0.00 85 1014.4
20260502201731 27 225 9.7 11.3 0.00 0.00 0.00 84 1014.4
20260502201227 27 170 11.3 12.9 0.00 0.00 0.00 83 1014.4
20260502200723 27 215 4.8 9.7 0.00 0.00 0.00 83 1014.4
20260502200220 27 226 8.0 11.3 0.00 0.00 0.00 82 1014.8
20260502195719 28 189 9.7 17.7 0.00 0.00 0.00 82 1014.4
20260502195215 27 168 11.3 14.5 0.00 0.00 0.00 83 1014.4
20260502194711 27 191 9.7 12.9 0.00 0.00 0.00 83 1014.4
20260502194209 27 179 4.8 9.7 0.00 0.00 0.00 83 1014.8
20260502193704 27 239 12.9 16.1 0.00 0.00 0.00 82 1014.8
20260502193202 27 218 8.0 11.3 0.00 0.00 0.00 82 1014.8
20260502192656 28 195 16.1 24.1 0.00 0.00 0.00 81 1015.1
20260502192154 28 282 3.2 4.8 0.00 0.00 0.00 81 1015.1
20260502191651 27 219 8.0 12.9 0.00 0.00 0.00 82 1015.1
20260502191148 28 234 11.3 16.1 0.00 0.00 0.00 81 1015.1
20260502190646 28 201 19.3 25.7 0.00 0.00 0.00 79 1015.1
20260502190144 28 29 3.2 4.8 0.00 0.00 0.00 80 1015.4
20260502185638 28 196 12.9 17.7 0.00 0.00 0.00 79 1015.1
20260502185135 28 203 11.3 16.1 0.00 0.00 0.00 80 1015.1
20260502184631 28 166 8.0 16.1 0.00 0.00 0.00 79 1015.1
20260502184127 28 264 3.2 4.8 0.00 0.00 0.00 79 1015.4
20260502183623 28 175 12.9 16.1 0.00 0.00 0.00 79 1015.4
20260502183120 28 172 9.7 14.5 0.00 0.00 0.00 79 1015.8
20260502182615 28 232 17.7 22.5 0.00 0.00 0.00 77 1015.4
20260502182110 28 278 4.8 8.0 0.00 0.00 0.00 78 1015.4
20260502181608 28 201 16.1 24.1 0.00 0.00 0.00 78 1015.4
20260502181102 29 217 8.0 14.5 0.00 0.00 0.00 76 1015.4
20260502180559 29 207 14.5 24.1 0.00 0.00 0.00 76 1015.8
20260502170512 29 173 16.1 22.5 0.00 0.00 0.00 80 1016.1
20260502163955 28 184 11.3 20.9 0.00 0.00 0.00 81 1016.1
20260502163451 28 161 11.3 17.7 0.00 0.00 0.00 82 1016.1
20260502162949 28 161 9.7 11.3 0.00 0.00 0.00 80 1016.1
20260502162446 28 167 9.7 14.5 0.00 0.00 0.00 80 1016.5
20260502161943 28 182 9.7 11.3 0.00 0.00 0.00 80 1016.1
20260502161439 29 202 8.0 17.7 0.00 0.00 0.00 79 1016.5
20260502160937 29 180 12.9 20.9 0.00 0.00 0.00 78 1016.1
20260502160434 28 199 8.0 12.9 0.00 0.00 0.00 78 1016.1
20260502151913 28 284 12.9 16.1 0.00 0.00 0.00 79 1015.8
20260502151409 28 181 16.1 29.0 0.00 0.00 0.00 80 1015.8
20260502150907 28 202 20.9 41.8 0.00 0.00 0.00 80 1015.8
20260502150403 28 169 19.3 33.8 0.00 0.00 0.00 80 1015.8
20260502130249 25 205 3.2 3.2 0.00 0.00 0.00 89 1014.8
20260502123735 24 180 3.2 3.2 0.00 0.00 0.00 89 1014.8
20260502123232 24 170 0.0 0.0 0.00 0.00 0.00 88 1014.8
20260502122728 23 164 1.6 1.6 0.00 0.00 0.00 88 1014.8
20260502122224 23 175 0.0 0.0 0.00 0.00 0.00 90 1014.8
20260502121723 23 178 0.0 0.0 0.00 0.00 0.00 90 1014.8
20260502121220 22 170 0.0 0.0 0.00 0.00 0.00 91 1014.8
20260502120716 22 164 0.0 0.0 0.00 0.00 0.00 92 1014.8
20260502120213 22 161 0.0 0.0 0.00 0.00 0.00 94 1014.4
20260502115711 22 167 3.2 3.2 0.00 0.00 0.00 94 1014.8
20260502115208 21 181 1.6 3.2 0.00 0.00 0.00 95 1014.4
20260502114704 21 172 1.6 1.6 0.00 0.00 0.00 96 1014.8
20260502114201 21 151 1.6 1.6 0.00 0.00 0.00 96 1014.4
20260502113658 21 176 0.0 1.6 0.00 0.00 0.00 97 1014.4
20260502113156 21 177 1.6 1.6 0.00 0.00 0.00 97 1014.4
20260502112654 21 171 3.2 3.2 0.00 0.00 0.00 98 1014.4
20260502112151 20 181 3.2 3.2 0.00 0.00 0.00 98 1014.8
20260502111648 20 168 0.0 1.6 0.00 0.00 0.00 98 1014.4
20260502111146 20 165 0.0 0.0 0.00 0.00 0.00 98 1014.4
20260502110643 20 195 4.8 4.8 0.00 0.00 0.00 99 1014.4
20260502110140 20 172 0.0 0.0 0.00 0.00 0.00 99 1014.1
20260502105638 20 164 4.8 8.0 0.00 0.00 0.00 99 1014.1
20260502105135 20 182 6.4 9.7 0.00 0.00 0.00 99 1014.1
20260502104632 20 163 6.4 8.0 0.00 0.00 0.00 99 1014.1
20260502104130 20 166 6.4 9.7 0.00 0.00 0.00 99 1014.1
20260502103627 20 184 1.6 3.2 0.00 0.00 0.00 99 1014.1
20260502103125 20 180 6.4 8.0 0.00 0.00 0.00 99 1014.1
20260502102621 20 165 4.8 8.0 0.00 0.00 0.00 99 1014.1
20260502102112 20 159 6.4 8.0 0.00 0.00 0.00 99 1014.4
20260502101610 20 174 4.8 8.0 0.00 0.00 0.00 99 1014.4
20260502101108 20 184 6.4 8.0 0.00 0.00 0.00 99 1014.4
20260502100607 20 184 3.2 3.2 0.00 0.00 0.00 99 1014.4
20260502100105 20 191 3.2 3.2 0.00 0.00 0.00 99 1014.8
20260502091038 20 146 1.6 1.6 0.00 0.00 0.00 99 1014.8
20260502090535 21 160 0.0 0.0 0.00 0.00 0.00 99 1014.8